Weather History for Hettinger, ND

Change the Weather History Date:

Monday, January 7, 2013

  Actual Average Record
Temperature  
Mean Temperature 24 °F -  
Max Temperature 36 °F 27 °F 55 °F (2002)
Min Temperature 12 °F 5 °F -9 °F (2004)
Degree Days  
Heating Degree Days 41 49  
Month to date heating degree days 324 343  
Since 1 July heating degree days 3757 3922  
Moisture  
Dew Point 18 °F    
Average Humidity 74    
Maximum Humidity 81    
Minimum Humidity 63    
Precipitation  
Precipitation 0.00 in 0.01 in 0.03 in (1999)
Month to date precipitation T 0.08  
Year to date precipitation T 0.08  
Sea Level Pressure  
Sea Level Pressure 29.93 in    
Wind  
Wind Speed 5 mph (SW)    
Max Wind Speed 14 mph    
Max Gust Speed 18 mph    
Visibility 10 miles    
Events      
T = Trace of Precipitation, MM = Missing Value Source: NWS Daily Summary

Daily Weather History Graph

Daily Weather History Graph

Search for Another Location

Airport:

Trip Planner

Search our weather history database for the weather conditions in past years. The results will help you decide how hot, cold, wet, or windy it might be!

Date:

Astronomy

Jan. 07, 2013 Rise Set
Actual Time 7:31 AM MST 4:22 PM MST
Civil Twilight 6:57 AM MST 4:56 PM MST
Nautical Twilight 6:20 AM MST 5:34 PM MST
Astronomical Twilight 5:44 AM MST 6:10 PM MST
Moon 2:54 AM MST (1/7) 12:37 PM MST (1/7)
Length of Visible Light 9h 58m
Length of Day
8h 50m
Waning Crescent, 22% of the Moon is Illuminated
Jan 7
Waning Crescent
Jan 11
New
Jan 18
First Quarter
Jan 26
Full
Feb 3
Last Quarter

Hourly Weather History & Observations

Time (MST) Temp. Windchill Dew Point Humidity Pressure Visibility Wind Dir Wind Speed Gust Speed Precip Events Conditions
12:53 AM 23.0 °F 15.8 °F 16.0 °F 74% 29.93 in 10.0 mi WNW 5.8 mph - N/A   Clear
1:53 AM 27.0 °F 18.0 °F 18.0 °F 69% 29.93 in 10.0 mi WNW 9.2 mph - N/A   Partly Cloudy
2:53 AM 21.9 °F 15.7 °F 16.0 °F 78% 29.94 in 10.0 mi West 4.6 mph - N/A   Clear
3:53 AM 17.1 °F 11.7 °F 12.0 °F 81% 29.95 in 10.0 mi WNW 3.5 mph - N/A   Clear
4:53 AM 17.1 °F 7.6 °F 12.0 °F 81% 29.96 in 10.0 mi WNW 6.9 mph - N/A   Clear
5:53 AM 17.1 °F - 12.0 °F 81% 29.97 in 10.0 mi Calm Calm - N/A   Clear
6:53 AM 17.1 °F 10.0 °F 10.9 °F 77% 29.99 in 10.0 mi SW 4.6 mph - N/A   Clear
7:53 AM 17.1 °F 8.7 °F 10.0 °F 74% 30.00 in 10.0 mi WSW 5.8 mph - N/A   Clear
8:53 AM 19.0 °F - 12.9 °F 77% 30.00 in 10.0 mi Calm Calm - N/A   Clear
9:53 AM 27.0 °F 23.0 °F 17.1 °F 66% 29.99 in 10.0 mi WNW 3.5 mph - N/A   Mostly Cloudy
10:53 AM 28.9 °F 25.2 °F 19.0 °F 67% 29.98 in 10.0 mi SSW 3.5 mph - N/A   Overcast
11:53 AM 30.0 °F 24.1 °F 19.9 °F 66% 29.96 in 10.0 mi WSW 5.8 mph - N/A   Overcast
12:53 PM 33.1 °F 24.4 °F 23.0 °F 66% 29.94 in 10.0 mi WSW 11.5 mph - N/A   Overcast
1:53 PM 35.1 °F 29.3 °F 24.1 °F 64% 29.92 in 10.0 mi West 6.9 mph - N/A   Overcast
2:53 PM 35.1 °F - 25.0 °F 67% 29.94 in 10.0 mi Calm Calm - N/A   Overcast
4:53 PM 30.9 °F - 24.1 °F 76% 29.94 in 10.0 mi Calm Calm - N/A   Overcast
5:53 PM 30.0 °F - 24.1 °F 79% 29.92 in 10.0 mi Calm Calm - N/A   Overcast
6:53 PM 30.0 °F 24.1 °F 23.0 °F 75% 29.91 in 10.0 mi SSE 5.8 mph - N/A   Overcast
7:53 PM 27.0 °F 19.5 °F 21.0 °F 78% 29.90 in 10.0 mi SE 6.9 mph - N/A   Partly Cloudy
8:53 PM 28.0 °F 21.7 °F 21.9 °F 78% 29.87 in 10.0 mi SSE 5.8 mph - N/A   Overcast
9:53 PM 24.1 °F 17.0 °F 19.0 °F 81% 29.83 in 10.0 mi SE 5.8 mph - N/A   Clear
10:53 PM 27.0 °F 20.5 °F 21.0 °F 78% 29.79 in 10.0 mi SE 5.8 mph - N/A   Overcast
11:53 PM 28.0 °F 18.6 °F 19.9 °F 72% 29.76 in 10.0 mi SE 10.4 mph - N/A   Overcast